Lytton, British Columbia

4:02 PM PDT on March 26, 2017 (GMT -0700)
Lytton

Weather History for CWLY - October, 2013

Change the Weather History Date:

Saturday, October 5, 2013

  Actual Average Record
Temperature  
Mean Temperature 60 °F -  
Max Temperature 66 °F 53 °F 78 °F (2003)
Min Temperature 53 °F 38 °F 36 °F (2012)
Degree Days  
Heating Degree Days 6    
Growing Degree Days 10 (Base 50)    
Moisture  
Dew Point 43 °F    
Average Humidity 53    
Maximum Humidity 63    
Minimum Humidity 43    
Precipitation  
Precipitation 0.00 in 0.05 in - ()
Sea Level Pressure  
Sea Level Pressure 30.21 in    
Wind  
Wind Speed 14 mph ()    
Max Wind Speed 30 mph    
Max Gust Speed 45 mph    
Visibility 9.0 miles    
Events      
Averages and records for this station are not official NWS values.
T = Trace of Precipitation, MM = Missing Value Source: Averaged Metar Reports

Daily Weather History Graph

Daily Weather History Graph

Search for Another Location

Airport or City:

Trip Planner

Search our weather history database for the weather conditions in past years. The results will help you decide how hot, cold, wet, or windy it might be!

Date:

Astronomy

Oct. 05, 2013 Rise Set
Actual Time 7:13 AM PDT 6:35 PM PDT
Civil Twilight 6:40 AM PDT 7:07 PM PDT
Nautical Twilight 6:03 AM PDT 7:44 PM PDT
Astronomical Twilight 5:24 AM PDT 8:23 PM PDT
Moon 8:06 AM PDT (10/5) 6:46 PM PDT (10/5)
Length of Visible Light 12h 26m
Length of Day
11h 21m
New Moon, 1% of the Moon is Illuminated
Oct 5
New Moon
Oct 11
First Quarter
Oct 18
Full
Oct 26
Last Quarter
Nov 3
New

Hourly Weather History & Observations

Time (PDT) Temp. Dew Point Humidity Pressure Visibility Wind Dir Wind Speed Gust Speed Precip Events Conditions
12:00 AM 59.0 °F 37.4 °F 45% 30.29 in 9.0 mi SSW 13.8 mph 27.6 mph N/A   Overcast
1:00 AM 57.2 °F 39.2 °F 51% 30.30 in 9.0 mi Variable 5.8 mph 23.0 mph N/A   Overcast
1:17 AM 57.2 °F 37.4 °F 48% 30.29 in 9.0 mi South 17.3 mph 28.8 mph N/A   Overcast
2:00 AM 57.2 °F 39.2 °F 51% 30.29 in 9.0 mi SSW 11.5 mph 25.3 mph N/A   Overcast
3:00 AM 55.4 °F 39.2 °F 54% 30.28 in 9.0 mi SSW 13.8 mph 31.1 mph N/A   Overcast
4:00 AM 55.4 °F 41.0 °F 58% 30.27 in 9.0 mi SSW 17.3 mph 28.8 mph N/A   Mostly Cloudy
5:00 AM 53.6 °F 41.0 °F 62% 30.27 in 9.0 mi SSW 19.6 mph 28.8 mph N/A   Overcast
6:00 AM 53.6 °F 41.0 °F 62% 30.27 in 9.0 mi SSW 18.4 mph 32.2 mph N/A   Mostly Cloudy
7:00 AM 55.4 °F 39.2 °F 54% 30.26 in 9.0 mi SSW 12.7 mph 27.6 mph N/A   Mostly Cloudy
8:00 AM 55.4 °F 41.0 °F 58% 30.26 in 9.0 mi SSW 18.4 mph 36.8 mph N/A   Mostly Cloudy
9:00 AM 55.4 °F 41.0 °F 58% 30.25 in 9.0 mi SSW 18.4 mph 31.1 mph N/A   Partly Cloudy
10:00 AM 57.2 °F 41.0 °F 55% 30.24 in 9.0 mi SSW 18.4 mph 33.4 mph N/A   Clear
11:00 AM 60.8 °F 42.8 °F 52% 30.24 in 9.0 mi South 18.4 mph 31.1 mph N/A   Clear
12:00 PM 62.6 °F 42.8 °F 48% 30.23 in 9.0 mi SSW 19.6 mph 39.1 mph N/A   Clear
1:00 PM 64.4 °F 42.8 °F 45% 30.20 in 9.0 mi SSW 17.3 mph 33.4 mph N/A   Partly Cloudy
2:00 PM 66.2 °F 42.8 °F 43% 30.15 in 9.0 mi SSW 25.3 mph 38.0 mph N/A   Clear
3:00 PM 66.2 °F 44.6 °F 46% 30.14 in 9.0 mi SSW 29.9 mph 44.9 mph N/A   Clear
4:00 PM 66.2 °F 44.6 °F 46% 30.14 in 9.0 mi SSW 18.4 mph 36.8 mph N/A   Mostly Cloudy
5:00 PM 64.4 °F 46.4 °F 52% 30.14 in 9.0 mi SW 13.8 mph 33.4 mph N/A   Overcast
6:00 PM 64.4 °F 46.4 °F 52% 30.14 in 9.0 mi SSW 13.8 mph 28.8 mph N/A   Overcast
7:00 PM 62.6 °F 46.4 °F 55% 30.14 in 9.0 mi SSW 17.3 mph 29.9 mph N/A   Overcast
8:00 PM 62.6 °F 46.4 °F 55% 30.15 in 9.0 mi SSW 16.1 mph 32.2 mph N/A   Overcast
9:00 PM 62.6 °F 48.2 °F 59% 30.14 in 9.0 mi SSW 18.4 mph 36.8 mph N/A   Scattered Clouds
10:00 PM 60.8 °F 48.2 °F 63% 30.13 in 9.0 mi SSW 21.9 mph 36.8 mph N/A   Clear
11:00 PM 60.8 °F 48.2 °F 63% 30.12 in 9.0 mi South 21.9 mph 35.7 mph N/A   Clear